TRANSIT 10 DEB, 24705

Orbit data source: Space-Track

TRANSIT 10 DEB, 24705 is space debris in LEO originally from a launch on Wed, 22 Dec 1965 UTC launched from the Air Force Western Test Range (AFWTR). Debris objects in space refer to the collection of defunct objects orbiting the Earth. Examples of debris include non-operational satellites, rocket bodies, and fragments generated from explosions, collisions, or faulty payload assembly.

Loading next visibility...
Identifier
24705, 1965-109E
Orbit
LEO
Country
Flag of USUS
Related business
Manufacturer
Unknown
Mission
Spacecraft
Bus & Motor
Unknown
Mass
Unknown
Launch date (UTC)
1965-12-22 (60 years ago)
Launch vehicle
Unknown
Launch site
Air Force Western Test Range (AFWTR)
Object type
Payload
Rocket body
Debris
Shape & HBR
Unknown
Radar Cross Section
Medium (>0.1 m² and <1 m²)

Expand to show TLE details & history
Last TLE update: 9 hours ago

TLE from 9 hours ago
0 TRANSIT 10 DEB
1 24705U 65109E   25242.91346470  .00004432  00000-0  23976-2 0  9990
2 24705  89.0583 228.7256 0077493 280.5714 146.4790 14.10884664459889
Epoch: 2025-08-30T21:55Z
TLE epoch observation values (Epoch: 2025-08-30T21:55:23.35Z)
Latitude
67.59607°
Longitude
-77.18948°
Altitude
915.019 km
Speed
7.377 km/s
True Right ascension
15h 23m 59s
True Declination
67° 28' 38"
Sunlit
Object was in daylight at epoch
Visualization orbit readout
Latitude
Unknown
Longitude
Unknown
Altitude
Unknown
Speed
Unknown
Apparent Right ascension
Unknown
Apparent Declination
Unknown
Sunlit
N/A
Visualization observer readout
Local Sidereal Time
22:10:47
Azimuth
Unknown
Elevation
Unknown
Doppler factor
Unknown
Orbital elements
Apogee altitude
909.348 km
Perigee altitude
797.271 km
Semi-major axis
7,231.447 km
Eccentricity
0.00775
Inclination
89.0583°
RAAN
228.7256°
Arg. of periapsis
280.5714°
True anomaly
146.96546°
Mean anomaly
146.479°
Eccentric anomaly
146.72262°
Mean motion
3.52944 °/min
Orbital period
102 mins
BSTAR
0.0023976
Loading maneuver chart data...
Computing Atmospheric mass density...
Loading historical data...
Loading historical data...
Loading historical data...
Loading historical data...
Loading historical data...
Loading historical data...
Loading historical data...

Documentation

Showing up to 5 results
|